Wind_Speed
33 33 34 34 36 38 37 36 35 35 37 39 42 44 46 47 47 47 47 46 41 36 33 32 32 31 31 31 33 34 33 35 41 46 45 43 44 45 45 43 40 38 38 39 39 39 40 41 42 41 41 40 40 40 40 40 39 39 39 39 39 39 39
34 34 36 37 37 37 37 37 36 35 37 39 42 44 46 45 44 45 46 43 38 35 33 32 31 31 30 31 32 34 34 34 36 41 45 46 45 47 48 48 46 44 43 44 43 42 42 43 44 45 46 45 45 44 44 43 42 42 41 40 41 42 42
37 37 38 38 38 38 38 37 37 37 37 39 42 43 42 41 42 44 42 38 35 33 31 30 29 29 29 30 31 32 34 35 35 37 40 43 46 47 49 50 50 50 50 50 49 48 48 47 47 48 48 48 47 46 46 45 45 44 44 43 44 44 44
41 39 38 37 38 40 38 37 36 36 36 38 39 38 37 38 40 40 36 33 31 31 29 27 26 26 26 28 29 31 32 34 36 37 38 40 42 45 47 49 51 52 54 54 54 53 52 51 50 50 49 49 49 48 47 46 45 45 45 45 45 44 44
44 42 39 37 38 40 38 35 34 34 35 36 37 37 37 38 37 34 31 30 29 27 26 25 24 24 24 25 26 28 30 32 34 36 37 39 41 43 45 47 48 50 51 52 53 53 53 53 53 52 50 50 49 48 47 46 45 45 46 46 44 43 43
45 42 39 38 40 43 42 39 36 35 35 37 38 40 40 38 33 30 28 27 25 24 24 23 23 23 23 23 24 24 26 28 30 32 34 36 39 41 42 44 46 47 48 49 50 51 52 53 53 52 51 50 49 48 46 45 44 44 45 45 44 42 43
46 43 40 39 40 43 44 43 42 40 40 41 41 41 40 36 32 29 27 25 24 23 23 23 23 23 23 23 23 23 24 24 25 27 29 31 33 35 38 40 41 43 44 46 47 48 49 50 50 50 49 49 48 46 46 45 45 44 45 45 45 44 44
47 46 43 42 43 44 44 45 45 45 45 45 44 43 42 41 39 36 33 30 27 24 23 24 24 24 24 24 24 24 25 25 25 26 27 29 30 32 33 35 36 38 39 40 41 42 43 45 46 47 48 48 48 47 46 47 46 45 45 46 46 46 46
46 45 45 45 45 47 47 48 48 48 48 48 47 48 49 50 49 46 43 40 35 29 26 24 24 24 26 26 27 26 26 26 27 28 29 30 31 32 33 34 35 36 37 38 38 39 40 41 41 42 44 46 47 48 48 49 50 49 49 48 48 48 48
45 44 44 45 45 47 49 51 51 51 51 52 52 54 55 55 55 53 50 48 45 39 32 28 26 25 25 27 29 30 30 30 29 29 30 31 32 33 34 35 35 35 36 36 37 37 38 39 40 41 42 43 44 45 46 49 51 52 53 53 52 52 52
46 45 45 46 46 47 49 50 52 52 52 53 54 55 56 57 57 56 54 52 50 48 42 36 31 28 27 27 29 32 33 34 34 34 34 34 34 35 35 36 36 37 37 37 36 36 37 39 40 41 42 43 43 43 44 46 48 50 51 53 54 55 55
47 47 47 48 48 48 49 50 50 51 51 51 52 54 55 56 56 57 56 55 54 53 50 46 40 35 32 31 31 33 34 36 37 38 38 39 39 40 40 40 40 40 40 39 38 38 38 39 40 41 42 42 43 43 44 45 46 47 48 50 51 53 55
46 47 47 48 49 50 50 50 50 51 51 52 53 54 55 57 57 58 58 58 56 54 53 51 48 43 39 38 37 37 38 40 41 42 43 43 44 45 46 47 47 46 44 43 42 41 40 40 40 41 42 42 43 43 43 45 46 47 48 49 50 52 53
46 47 48 49 50 50 51 52 52 52 53 53 55 56 58 59 60 60 59 58 57 55 53 52 51 49 47 44 42 43 44 46 47 48 49 48 49 51 52 53 52 51 48 46 45 44 43 42 41 41 42 43 43 43 44 45 46 47 48 49 51 52 53
48 48 49 50 50 51 51 52 53 53 53 54 55 57 58 59 60 59 58 57 56 55 54 53 52 51 50 48 46 46 48 49 50 51 52 52 54 57 58 56 54 52 50 48 48 47 47 45 43 42 43 44 44 45 45 45 46 47 48 49 49 50 52
46 47 48 50 51 52 52 52 52 52 52 53 55 56 57 58 58 57 57 57 56 55 55 54 53 52 52 50 49 49 50 52 52 52 53 54 57 59 60 58 55 53 51 50 50 50 49 47 45 44 44 44 45 46 46 45 46 47 48 49 48 48 49
47 50 53 55 55 53 53 53 53 53 53 53 54 55 56 57 58 58 58 58 57 56 56 55 54 54 53 52 51 51 52 52 52 53 56 59 61 61 60 57 56 54 54 53 53 53 52 50 47 46 46 45 45 46 47 47 47 48 49 50 50 49 49
51 53 56 59 59 58 56 56 56 55 54 55 56 56 57 58 59 60 60 60 59 59 58 58 57 57 56 55 54 54 53 54 55 58 61 63 64 63 61 58 56 55 56 56 56 55 54 52 50 48 48 47 45 45 47 48 49 49 49 50 51 51 51
51 51 52 56 59 60 59 58 57 57 56 56 57 58 59 59 60 61 61 61 61 61 61 61 62 61 60 60 60 60 60 61 63 65 67 66 64 63 61 59 58 56 56 57 57 56 55 54 51 50 49 47 45 45 46 48 50 50 50 50 51 52 53
43 41 42 46 51 55 57 57 58 58 59 59 59 59 60 60 61 62 63 63 63 63 64 64 65 65 64 64 65 65 66 68 70 70 70 68 65 64 62 60 59 59 59 58 57 56 55 53 50 48 48 49 48 47 46 47 49 50 50 51 52 53 54
40 36 36 41 46 50 53 54 56 58 59 61 62 63 63 63 63 63 64 64 64 65 66 67 67 68 68 68 69 69 70 72 72 71 70 68 66 65 64 62 60 59 59 59 58 56 53 50 48 47 48 50 51 49 47 47 48 49 50 51 53 55 56
44 42 42 45 48 51 54 57 60 62 63 64 64 64 63 63 63 62 63 63 64 65 66 67 68 69 70 70 70 71 71 72 72 71 70 69 69 67 65 62 60 59 60 60 58 55 52 50 49 49 49 50 50 48 47 47 48 49 50 51 51 53 55
46 47 51 55 58 58 59 61 63 65 66 67 67 66 64 63 63 62 61 61 62 64 65 66 68 69 70 70 70 70 71 71 72 71 71 71 69 68 66 64 63 62 61 60 57 54 53 53 52 52 52 50 48 47 47 47 48 49 50 50 49 50 51
52 54 57 61 62 61 59 59 61 63 65 66 67 67 66 66 66 66 65 65 66 67 68 69 70 70 70 70 71 71 71 71 71 71 71 70 68 67 67 66 64 62 59 57 55 55 56 56 56 55 54 52 50 48 47 47 48 49 49 48 47 47 47
61 63 63 62 62 60 57 57 59 61 62 65 66 67 67 68 69 70 71 72 73 73 73 73 73 73 72 71 71 71 71 71 70 69 68 66 65 65 64 63 63 61 60 59 59 59 59 59 60 58 55 52 52 51 48 47 47 49 49 48 46 46 47
66 67 66 63 61 57 51 49 54 57 59 62 64 66 69 71 72 74 75 76 77 77 77 77 76 75 73 71 70 70 70 69 68 66 64 63 64 65 64 62 61 60 59 60 61 61 61 61 60 57 53 50 50 51 50 50 50 51 51 51 50 50 51
69 69 68 66 65 61 55 56 63 66 66 69 71 73 75 76 77 77 77 77 78 78 77 77 76 74 73 71 70 69 69 68 67 65 64 64 65 65 64 62 60 59 59 60 61 62 61 59 57 56 55 53 52 52 53 53 55 57 57 56 55 56 56
74 73 73 73 73 73 72 74 78 80 80 81 81 81 81 81 81 80 79 78 77 76 75 75 74 74 73 72 71 70 70 69 67 66 66 67 66 65 64 62 62 61 61 62 63 63 61 59 59 60 61 60 60 60 61 62 63 64 63 63 62 62 62
75 75 76 76 76 77 78 79 82 83 83 82 81 81 81 81 80 79 78 77 76 76 75 75 75 75 75 74 73 72 72 71 70 68 68 69 69 68 67 65 65 65 65 67 69 69 67 66 65 65 67 68 71 72 74 74 73 70 68 67 67 68 69
74 74 74 75 75 76 76 78 79 79 79 79 79 80 80 81 80 79 78 78 77 77 77 76 76 76 76 76 75 74 73 73 72 71 70 70 71 72 72 72 72 72 72 74 75 75 74 74 74 73 75 78 80 81 80 78 76 73 70 68 69 70 71
73 73 73 74 74 75 76 77 78 78 77 77 77 79 80 81 80 79 79 78 77 77 78 78 78 77 77 78 77 76 76 75 75 74 73 74 74 75 76 77 77 77 78 79 79 78 78 79 79 79 80 83 84 83 79 77 75 74 72 71 70 70 70
73 74 74 75 75 75 76 77 78 78 77 76 77 79 81 82 81 80 80 79 78 78 79 79 79 79 79 79 79 79 78 78 77 77 77 77 76 77 78 79 79 80 80 81 81 81 80 80 80 80 81 82 83 80 76 76 76 76 75 74 73 71 70
74 75 75 76 76 76 76 77 78 78 77 77 77 79 80 80 80 80 79 79 77 76 76 76 77 78 78 78 78 77 77 77 77 77 77 77 76 76 76 77 77 77 78 79 79 79 79 78 77 76 75 75 76 76 75 75 77 78 78 77 75 72 71
73 73 73 73 73 73 74 74 75 75 75 74 73 74 74 74 74 73 73 72 71 69 69 70 71 72 73 73 74 74 74 74 74 74 74 74 73 73 74 74 74 74 75 77 77 76 76 74 73 72 71 70 71 72 71 71 72 74 75 75 74 73 71
73 73 72 71 71 71 72 72 73 73 73 72 71 70 71 71 70 70 69 69 68 66 66 67 68 70 70 71 71 71 71 72 72 72 72 71 71 72 73 74 75 76 77 77 75 74 73 72 71 71 71 70 69 69 68 68 69 70 71 71 71 70 69
75 75 75 74 73 73 74 74 74 74 74 74 73 72 72 72 71 70 69 69 68 66 66 66 67 68 69 69 70 71 71 71 71 71 71 72 73 74 74 75 78 80 80 77 74 73 71 70 70 70 70 69 68 68 68 69 69 70 70 70 70 69 69
78 78 78 78 77 77 77 77 77 77 78 78 77 77 76 76 75 74 72 70 69 67 66 66 67 67 68 70 71 71 72 73 73 73 74 75 76 77 77 79 83 84 81 78 76 74 72 70 68 68 68 68 68 69 70 70 70 71 71 71 71 71 72
Wind_Direction
287 284 281 275 270 266 263 261 262 267 273 276 280 286 290 293 295 296 298 297 294 292 290 287 283 279 276 274 273 271 266 255 247 246 248 249 248 250 251 252 251 250 250 251 252 252 253 256 261 267 272 275 278 279 279 277 276 276 276 274 271 270 271
282 282 281 276 271 268 266 265 266 268 273 278 283 288 291 292 295 298 299 296 292 291 290 287 284 280 277 275 274 273 271 266 257 251 251 253 253 253 255 257 259 259 258 258 259 260 261 263 265 269 274 278 280 280 279 277 274 271 270 270 271 270 270
279 280 282 279 270 266 266 266 267 269 274 281 284 286 288 290 295 300 300 295 290 290 289 286 284 281 277 275 274 273 272 270 267 262 258 257 258 259 259 260 262 263 264 264 265 266 267 268 270 273 276 278 279 279 279 277 275 272 268 266 268 269 269
279 280 283 280 268 263 265 267 270 273 277 281 283 283 287 291 297 302 298 292 290 289 288 287 285 283 279 275 272 272 271 270 269 267 265 263 262 262 263 263 264 264 265 266 267 268 270 271 272 274 276 278 278 278 276 275 273 272 269 268 269 269 268
276 278 280 279 269 263 264 268 272 276 278 280 281 283 288 292 298 302 297 291 291 290 289 289 287 285 282 278 274 272 271 271 270 270 268 267 266 266 266 266 266 266 266 267 268 269 271 272 273 274 276 277 277 276 274 272 271 270 269 269 269 268 267
273 276 277 277 272 267 266 267 269 273 277 279 281 284 288 290 295 301 299 294 294 293 292 291 289 287 284 281 278 275 274 274 274 274 273 272 271 271 271 270 270 270 270 270 271 271 272 273 274 274 275 275 275 273 271 269 268 267 267 266 266 265 265
270 272 273 273 271 269 267 267 268 270 275 278 280 282 285 287 289 294 297 297 297 295 293 291 289 288 287 285 284 281 278 276 276 276 276 276 276 275 274 274 274 274 274 274 274 274 275 275 275 275 275 274 272 270 267 265 265 265 265 265 265 264 263
271 271 270 268 267 266 265 266 267 269 273 276 278 279 282 284 285 286 288 291 295 295 291 288 287 286 286 286 285 283 282 280 279 278 277 276 276 276 275 275 275 275 275 275 275 275 276 276 276 276 274 273 271 268 265 263 263 264 265 265 266 265 263
273 272 271 269 266 263 263 263 265 267 270 272 274 276 278 280 282 282 282 283 286 290 289 286 285 285 284 284 283 281 280 280 281 280 280 279 278 277 276 276 275 275 275 276 276 276 276 276 276 276 275 274 272 269 266 263 263 263 265 266 267 267 265
270 268 268 267 265 263 263 265 266 268 270 271 272 274 275 276 277 278 278 278 280 283 284 281 282 283 284 286 285 282 279 278 280 281 281 281 281 281 280 278 277 276 276 277 278 278 278 277 277 276 276 275 274 272 270 267 266 265 266 266 267 268 267
268 264 263 262 262 264 266 268 270 271 272 272 271 272 272 273 274 274 274 274 276 279 280 280 279 279 281 285 286 285 282 279 279 281 282 281 280 281 281 282 281 280 279 278 278 279 278 278 277 276 275 274 274 274 273 271 270 269 269 268 268 268 268
268 265 264 263 264 265 267 269 271 273 273 272 271 270 270 270 271 271 272 272 274 275 277 279 280 279 279 282 284 285 285 283 282 283 285 284 282 281 280 281 281 281 281 281 280 280 279 279 278 277 276 276 275 275 274 273 272 272 271 271 271 270 269
270 269 269 269 269 270 270 271 272 272 272 271 270 269 268 268 268 269 270 272 273 274 274 276 278 279 279 280 281 283 285 286 286 287 288 288 288 287 284 281 280 279 279 280 280 280 280 279 279 279 279 278 277 276 276 275 274 273 273 272 271 271 271
273 273 274 274 274 273 273 273 272 271 271 271 270 268 267 268 269 270 271 271 272 273 273 272 274 277 279 280 280 282 284 286 287 288 290 292 293 294 291 286 281 278 277 277 278 278 278 279 280 280 279 279 278 277 277 276 276 275 275 274 273 272 272
278 278 279 279 278 276 275 274 273 272 272 271 270 270 270 271 271 271 272 272 272 272 273 273 273 274 277 278 279 281 283 285 286 286 288 291 294 296 294 289 283 278 276 277 277 277 277 278 279 279 279 278 278 278 277 277 277 276 275 274 273 273 273
282 281 282 282 281 280 278 275 273 272 272 271 270 271 272 271 271 270 270 271 272 273 274 274 274 275 276 277 278 279 282 284 285 285 286 289 292 294 292 289 284 279 276 277 278 277 277 278 279 280 280 279 279 279 279 278 277 276 275 274 272 272 273
279 280 281 281 280 278 276 275 274 273 272 271 270 270 270 269 268 268 268 269 270 272 273 274 274 275 276 276 277 279 281 283 284 285 286 289 291 291 290 287 284 279 275 276 278 279 279 279 279 280 280 280 281 281 281 280 278 276 275 274 272 271 270
277 279 279 278 277 275 272 272 272 272 272 271 270 269 268 268 267 267 268 268 269 269 270 271 273 274 274 275 275 276 278 280 281 284 287 289 290 289 288 285 283 280 277 276 278 280 280 279 279 279 279 279 280 280 281 280 278 276 274 272 271 270 268
279 280 279 277 276 274 272 270 269 269 270 270 270 270 269 269 269 269 269 269 269 270 270 271 272 272 273 272 273 274 276 278 281 284 288 289 288 288 287 284 282 281 280 279 279 280 280 279 279 279 279 279 278 279 280 279 278 277 275 273 271 270 268
275 276 276 275 275 275 275 274 272 270 270 269 268 269 269 270 271 271 272 272 272 272 272 272 273 273 273 273 274 276 278 281 283 286 288 287 287 287 287 284 282 283 282 281 279 279 278 278 277 278 279 281 282 282 281 278 276 275 275 274 273 272 270
261 264 266 266 270 274 275 276 276 274 273 272 271 270 270 270 270 272 272 273 273 274 274 274 274 275 276 277 279 281 283 284 285 286 287 286 286 287 286 284 283 284 283 281 280 279 277 275 275 277 279 283 284 284 282 279 275 273 272 272 273 273 272
251 252 256 259 263 268 270 273 274 274 273 273 273 273 272 272 272 272 273 273 274 275 275 276 278 279 280 281 283 283 284 285 286 287 287 286 286 287 285 284 284 284 284 283 281 279 277 276 275 277 280 284 285 285 284 280 277 276 274 273 272 272 273
245 246 251 257 259 263 267 269 269 268 269 270 271 272 272 273 274 274 274 274 275 276 277 279 280 281 282 283 283 284 284 285 286 287 287 287 287 286 284 283 284 285 285 283 280 278 278 278 278 280 283 285 284 284 285 284 282 280 279 277 274 273 272
246 248 252 257 260 263 265 264 262 263 265 267 269 271 272 273 274 275 275 275 276 277 279 280 281 282 283 283 283 283 284 284 285 285 286 286 285 284 283 284 284 285 284 281 278 278 279 279 280 283 286 285 283 283 284 284 284 283 281 279 275 273 272
247 252 256 259 262 264 265 264 263 263 264 266 268 270 271 272 274 275 276 276 277 277 278 278 279 280 281 282 282 282 282 282 282 282 283 282 281 281 282 283 283 283 280 278 277 278 279 280 282 284 285 284 283 283 283 283 283 283 281 279 276 273 273
249 254 258 259 260 262 264 266 265 263 263 265 267 269 270 272 273 274 275 276 277 277 277 278 278 278 278 278 279 280 280 280 280 280 279 278 278 280 280 280 280 280 278 278 279 281 282 283 284 285 285 284 282 282 283 284 285 285 282 279 276 275 274
251 253 255 255 255 255 256 260 264 265 266 267 269 270 271 271 272 272 273 274 275 275 276 277 277 277 277 277 277 277 278 278 278 277 276 275 276 277 278 277 276 275 275 276 279 281 283 283 282 282 282 281 280 280 281 283 285 287 285 281 278 277 278
254 253 254 254 254 254 253 255 260 263 265 267 269 270 270 271 271 271 271 272 273 273 274 275 275 276 276 276 276 276 276 276 275 275 274 274 274 275 275 274 272 271 272 273 275 277 277 277 277 277 278 278 278 278 279 281 282 284 283 281 279 280 280
256 256 256 255 256 256 256 257 259 261 264 265 267 268 269 269 269 269 270 270 271 271 272 273 274 274 275 275 275 275 275 275 275 274 274 274 274 274 273 271 269 268 269 270 271 272 272 271 272 273 275 277 278 279 280 281 281 281 281 279 277 277 278
258 258 258 258 258 259 259 260 260 261 263 264 265 266 267 267 267 267 268 268 269 269 270 271 271 272 273 273 273 273 273 273 274 273 273 273 273 273 273 272 270 269 269 269 270 270 270 270 270 271 274 276 278 279 280 281 281 282 281 279 277 276 277
260 260 260 260 260 260 260 261 261 262 263 264 265 265 266 266 266 267 267 267 268 268 269 269 270 270 270 271 271 271 271 271 271 271 271 270 270 271 271 271 271 271 270 270 270 270 270 270 270 271 273 275 277 278 280 281 281 281 282 280 279 278 279
260 261 261 261 261 261 262 263 263 263 264 264 264 265 266 267 268 268 268 268 268 269 269 269 269 269 269 269 269 269 269 269 269 269 269 269 269 269 269 270 270 270 270 270 270 270 270 270 270 271 272 273 275 277 279 280 279 280 280 280 279 279 280
260 260 261 262 262 263 263 264 264 264 264 264 264 265 266 267 268 268 269 269 269 268 268 268 268 268 268 268 267 267 268 268 268 268 268 268 268 268 268 268 268 268 268 268 269 269 270 270 271 271 272 273 274 276 278 278 277 277 277 278 278 279 280
264 264 264 264 265 265 265 264 264 264 264 263 263 263 264 264 265 265 266 265 265 265 265 266 266 267 267 267 266 266 266 267 267 268 268 269 269 269 269 268 268 267 267 266 267 267 269 271 272 272 273 274 274 275 276 276 275 275 275 276 277 278 279
272 271 271 270 270 270 270 269 268 268 267 265 264 264 263 263 262 261 260 260 259 259 261 262 264 265 266 266 267 267 267 267 267 268 269 270 270 270 270 271 271 269 267 266 266 267 269 270 271 272 272 273 273 273 273 273 274 275 275 276 276 276 277
275 275 275 275 275 275 275 275 274 274 274 273 272 271 269 268 266 264 262 260 258 258 258 260 263 265 267 268 269 269 270 270 270 271 272 272 272 272 272 273 273 271 270 269 268 268 268 268 269 270 271 272 271 272 272 273 273 274 275 276 276 276 276
276 276 276 276 277 276 276 277 277 277 277 277 277 277 277 276 275 273 271 268 265 263 262 262 264 266 269 270 271 271 272 273 273 273 273 274 274 274 274 274 273 273 273 273 272 270 269 268 267 268 269 270 270 271 272 272 273 274 275 275 276 276 277
Height
10658 10658 10659 10660 10660 10660 10660 10660 10661 10662 10662 10662 10661 10661 10660 10659 10659 10657 10655 10653 10652 10652 10652 10652 10651 10651 10651 10651 10650 10650 10651 10653 10654 10655 10656 10657 10658 10659 10660 10662 10664 10666 10666 10666 10666 10667 10666 10665 10663 10661 10661 10662 10662 10662 10661 10660 10659 10658 10658 10659 10660 10660 10661
10656 10656 10656 10657 10657 10657 10658 10658 10659 10659 10659 10659 10659 10658 10658 10656 10655 10653 10651 10649 10648 10648 10648 10648 10648 10647 10647 10647 10646 10646 10646 10648 10649 10650 10651 10652 10653 10653 10654 10656 10657 10659 10659 10660 10661 10662 10662 10661 10659 10657 10657 10658 10658 10657 10656 10655 10655 10656 10656 10655 10655 10656 10656
10653 10653 10653 10654 10655 10655 10656 10656 10656 10657 10657 10657 10657 10656 10655 10654 10652 10650 10648 10646 10645 10645 10645 10644 10644 10644 10643 10643 10643 10643 10642 10643 10644 10646 10647 10648 10648 10648 10649 10650 10651 10652 10652 10653 10655 10656 10656 10655 10654 10653 10653 10653 10653 10652 10651 10650 10650 10651 10652 10652 10651 10651 10652
10649 10649 10650 10650 10651 10652 10653 10654 10654 10655 10655 10655 10654 10653 10652 10651 10650 10648 10646 10644 10644 10643 10642 10641 10641 10640 10640 10640 10640 10640 10639 10639 10640 10641 10643 10643 10643 10643 10644 10645 10645 10645 10646 10647 10648 10649 10649 10649 10649 10649 10649 10649 10648 10647 10646 10645 10644 10644 10646 10647 10647 10646 10647
10645 10645 10646 10647 10648 10649 10650 10651 10653 10653 10653 10652 10651 10650 10649 10648 10647 10645 10643 10642 10642 10641 10640 10639 10638 10637 10637 10636 10636 10636 10636 10635 10636 10637 10638 10638 10638 10638 10639 10639 10639 10640 10641 10642 10643 10643 10643 10643 10643 10644 10645 10644 10642 10642 10641 10641 10640 10639 10640 10642 10642 10642 10641
10641 10641 10642 10643 10643 10644 10646 10648 10649 10650 10650 10649 10648 10647 10646 10645 10644 10642 10641 10640 10639 10638 10637 10637 10636 10635 10634 10634 10633 10633 10632 10632 10632 10632 10632 10633 10633 10633 10633 10634 10634 10634 10635 10636 10637 10637 10637 10637 10637 10639 10640 10639 10637 10637 10637 10637 10636 10636 10636 10636 10637 10637 10636
10638 10638 10639 10639 10639 10639 10641 10642 10644 10645 10645 10645 10644 10643 10642 10642 10641 10639 10638 10637 10636 10636 10635 10634 10633 10633 10632 10632 10631 10631 10630 10629 10629 10629 10629 10629 10628 10628 10629 10629 10629 10629 10630 10630 10631 10631 10631 10630 10631 10634 10634 10633 10632 10632 10632 10632 10632 10632 10632 10632 10632 10632 10631
10634 10635 10635 10635 10634 10634 10634 10636 10637 10639 10639 10640 10640 10639 10638 10638 10637 10636 10635 10634 10633 10633 10632 10631 10630 10630 10629 10629 10630 10629 10629 10628 10628 10628 10627 10627 10626 10626 10626 10626 10626 10626 10625 10626 10626 10627 10626 10625 10626 10627 10627 10627 10626 10627 10627 10627 10627 10627 10627 10627 10627 10627 10627
10629 10630 10631 10631 10630 10629 10629 10629 10630 10632 10633 10633 10633 10633 10633 10632 10632 10631 10630 10630 10630 10630 10629 10628 10627 10626 10626 10626 10627 10627 10627 10627 10626 10626 10625 10625 10624 10623 10623 10623 10623 10622 10622 10622 10623 10623 10622 10621 10621 10621 10622 10621 10621 10622 10622 10622 10622 10622 10622 10622 10622 10622 10622
10625 10625 10626 10626 10625 10625 10624 10623 10623 10625 10626 10626 10627 10627 10627 10627 10626 10626 10625 10625 10626 10626 10626 10625 10624 10623 10622 10622 10623 10623 10624 10624 10624 10623 10623 10623 10622 10621 10620 10620 10619 10619 10619 10618 10619 10619 10618 10617 10617 10617 10616 10616 10616 10617 10617 10617 10617 10617 10617 10617 10616 10615 10616
10620 10621 10621 10620 10621 10621 10620 10618 10618 10618 10619 10619 10620 10620 10620 10620 10620 10619 10619 10620 10621 10622 10623 10622 10621 10620 10618 10618 10618 10619 10620 10620 10621 10621 10620 10621 10620 10619 10618 10617 10616 10615 10615 10615 10615 10615 10614 10614 10613 10612 10611 10611 10611 10612 10612 10612 10611 10611 10611 10610 10610 10609 10609
10615 10615 10615 10615 10616 10616 10615 10614 10613 10612 10612 10612 10613 10613 10613 10613 10613 10613 10613 10614 10615 10616 10618 10618 10617 10616 10615 10614 10614 10615 10616 10617 10617 10617 10617 10618 10617 10617 10616 10614 10613 10612 10611 10611 10611 10611 10610 10609 10608 10607 10607 10607 10607 10607 10607 10606 10605 10605 10605 10604 10603 10602 10602
10611 10610 10610 10610 10611 10611 10610 10609 10608 10607 10606 10606 10606 10606 10606 10606 10606 10606 10607 10608 10609 10610 10611 10612 10612 10612 10611 10611 10610 10611 10611 10612 10613 10614 10614 10614 10613 10613 10613 10612 10610 10609 10607 10607 10606 10606 10605 10604 10604 10603 10602 10601 10601 10601 10601 10600 10600 10599 10598 10598 10597 10596 10596
10606 10605 10605 10605 10605 10606 10606 10604 10603 10601 10600 10600 10599 10599 10599 10599 10600 10600 10601 10602 10603 10604 10605 10606 10607 10607 10606 10606 10606 10605 10606 10607 10608 10608 10608 10608 10608 10608 10608 10607 10606 10605 10604 10602 10601 10600 10599 10598 10599 10598 10596 10595 10595 10595 10595 10594 10594 10593 10592 10592 10591 10590 10589
10600 10600 10599 10599 10600 10601 10601 10600 10597 10595 10595 10594 10593 10592 10593 10593 10594 10595 10595 10596 10596 10597 10598 10599 10600 10601 10600 10600 10600 10599 10600 10600 10601 10602 10602 10603 10603 10602 10601 10601 10600 10599 10598 10597 10595 10594 10592 10593 10593 10593 10591 10589 10588 10587 10588 10588 10587 10586 10585 10584 10584 10583 10583
10594 10594 10593 10593 10594 10594 10595 10594 10592 10590 10589 10589 10587 10587 10588 10588 10588 10589 10589 10589 10590 10590 10591 10592 10593 10593 10593 10593 10593 10593 10593 10593 10594 10594 10595 10596 10596 10596 10595 10594 10593 10593 10592 10591 10589 10587 10586 10586 10587 10586 10585 10583 10582 10580 10580 10581 10581 10579 10578 10577 10577 10578 10576
10588 10587 10587 10586 10587 10588 10588 10588 10587 10586 10585 10583 10583 10583 10583 10582 10582 10583 10583 10584 10584 10584 10584 10585 10585 10586 10586 10586 10585 10585 10585 10585 10586 10586 10587 10588 10589 10589 10588 10587 10586 10586 10585 10584 10583 10582 10580 10580 10581 10580 10578 10577 10577 10574 10573 10573 10573 10573 10571 10569 10569 10570 10570
10583 10581 10580 10578 10579 10581 10582 10583 10582 10581 10580 10578 10577 10577 10577 10576 10576 10576 10577 10579 10579 10580 10579 10579 10579 10579 10579 10579 10578 10578 10578 10578 10578 10579 10580 10580 10581 10580 10580 10580 10579 10578 10578 10578 10579 10577 10574 10573 10573 10572 10571 10571 10572 10570 10568 10565 10564 10564 10565 10563 10562 10562 10562
10578 10575 10572 10571 10570 10572 10575 10576 10576 10576 10575 10573 10571 10570 10570 10570 10570 10571 10572 10573 10574 10574 10574 10574 10573 10572 10572 10572 10571 10571 10572 10571 10571 10572 10572 10573 10573 10572 10572 10571 10570 10570 10571 10571 10572 10570 10567 10566 10565 10564 10562 10563 10564 10566 10564 10560 10557 10556 10556 10556 10555 10554 10554
10574 10570 10568 10565 10564 10565 10567 10568 10568 10568 10568 10566 10565 10564 10564 10564 10565 10565 10566 10567 10568 10568 10568 10567 10566 10565 10565 10565 10565 10565 10565 10564 10564 10565 10565 10564 10564 10564 10562 10562 10562 10562 10562 10562 10563 10563 10561 10559 10558 10557 10555 10553 10554 10558 10558 10555 10552 10550 10549 10549 10547 10546 10546
10570 10570 10567 10562 10559 10560 10561 10561 10560 10559 10558 10557 10558 10558 10558 10559 10560 10560 10561 10561 10561 10561 10560 10559 10558 10557 10557 10558 10558 10558 10557 10556 10556 10556 10556 10556 10556 10556 10553 10553 10554 10555 10553 10552 10554 10554 10553 10552 10552 10551 10549 10547 10545 10547 10548 10547 10545 10544 10543 10543 10541 10539 10538
10565 10567 10563 10558 10555 10555 10555 10555 10554 10552 10551 10550 10551 10551 10552 10553 10554 10555 10555 10555 10554 10553 10552 10551 10550 10550 10550 10550 10550 10550 10549 10548 10548 10548 10548 10548 10549 10548 10546 10545 10546 10546 10545 10545 10546 10546 10544 10545 10545 10544 10543 10542 10539 10538 10539 10538 10537 10536 10536 10536 10536 10534 10532
10558 10560 10556 10551 10550 10550 10550 10548 10546 10544 10543 10544 10545 10545 10545 10546 10547 10548 10549 10548 10547 10546 10546 10545 10544 10544 10543 10543 10543 10543 10542 10542 10541 10540 10541 10542 10542 10541 10539 10538 10537 10537 10537 10538 10538 10538 10536 10536 10537 10537 10536 10535 10534 10532 10531 10530 10530 10529 10528 10528 10528 10528 10527
10549 10549 10547 10545 10545 10545 10544 10541 10538 10536 10536 10537 10538 10538 10539 10539 10540 10541 10541 10541 10541 10540 10539 10539 10538 10537 10537 10536 10536 10536 10536 10536 10535 10535 10535 10536 10536 10533 10531 10530 10530 10530 10530 10530 10531 10530 10529 10527 10528 10528 10527 10527 10526 10526 10525 10524 10523 10522 10521 10521 10521 10520 10521
10540 10539 10538 10539 10539 10539 10537 10532 10529 10530 10530 10530 10531 10532 10532 10533 10533 10533 10533 10533 10533 10533 10533 10532 10532 10531 10531 10531 10530 10529 10529 10529 10529 10530 10530 10530 10529 10526 10524 10523 10524 10524 10524 10523 10522 10522 10521 10520 10519 10518 10518 10517 10516 10516 10517 10516 10516 10515 10515 10515 10514 10514 10514
10534 10532 10532 10532 10532 10531 10528 10523 10520 10522 10524 10525 10525 10526 10526 10526 10527 10527 10527 10526 10526 10526 10525 10525 10525 10524 10525 10525 10524 10523 10522 10522 10523 10525 10525 10524 10521 10519 10518 10518 10518 10517 10515 10514 10513 10513 10512 10511 10510 10509 10508 10508 10506 10506 10507 10507 10507 10508 10508 10508 10508 10507 10507
10529 10528 10526 10526 10525 10524 10522 10517 10513 10514 10517 10518 10519 10520 10519 10519 10520 10521 10521 10520 10519 10519 10518 10518 10517 10517 10517 10517 10517 10517 10516 10515 10516 10518 10518 10517 10515 10513 10512 10513 10513 10510 10508 10506 10505 10505 10503 10502 10502 10501 10500 10500 10498 10498 10498 10499 10499 10500 10500 10500 10500 10499 10500
10520 10520 10519 10518 10518 10518 10516 10513 10509 10508 10510 10511 10512 10512 10511 10511 10511 10512 10513 10513 10512 10511 10511 10511 10510 10510 10510 10510 10510 10510 10508 10508 10510 10511 10511 10509 10508 10507 10506 10507 10506 10504 10503 10501 10500 10498 10497 10496 10495 10494 10493 10492 10491 10491 10491 10492 10492 10492 10492 10492 10492 10491 10490
10509 10510 10510 10510 10510 10510 10509 10507 10505 10504 10504 10504 10505 10503 10502 10501 10501 10502 10503 10504 10504 10503 10503 10503 10502 10502 10501 10502 10502 10502 10501 10500 10501 10503 10503 10501 10500 10499 10498 10498 10498 10497 10496 10494 10492 10492 10491 10490 10489 10488 10486 10485 10483 10483 10483 10483 10484 10485 10485 10484 10484 10483 10482
10499 10500 10500 10501 10501 10501 10500 10498 10497 10496 10496 10496 10495 10493 10491 10491 10491 10493 10494 10494 10495 10495 10494 10494 10495 10494 10493 10492 10493 10493 10492 10492 10492 10494 10495 10494 10491 10490 10489 10488 10488 10487 10487 10485 10482 10482 10482 10481 10481 10481 10479 10477 10475 10473 10474 10475 10475 10475 10475 10475 10475 10474 10473
10490 10490 10490 10490 10490 10489 10489 10488 10487 10487 10488 10488 10486 10483 10481 10480 10481 10482 10483 10484 10485 10485 10485 10484 10485 10486 10484 10483 10484 10483 10482 10483 10483 10484 10485 10485 10483 10482 10480 10477 10477 10477 10475 10473 10471 10471 10472 10471 10471 10472 10472 10470 10466 10464 10466 10467 10466 10465 10465 10465 10464 10464 10464
10480 10479 10479 10479 10479 10479 10478 10477 10477 10478 10479 10479 10477 10474 10472 10471 10472 10472 10472 10474 10475 10476 10475 10474 10474 10474 10474 10474 10474 10473 10473 10473 10474 10473 10474 10474 10474 10473 10471 10468 10466 10465 10463 10461 10460 10461 10461 10461 10461 10463 10463 10462 10458 10456 10458 10459 10457 10456 10455 10454 10454 10454 10455
10469 10469 10468 10468 10469 10469 10469 10467 10466 10467 10468 10469 10468 10466 10464 10463 10463 10463 10462 10463 10464 10465 10465 10464 10462 10463 10463 10464 10464 10464 10464 10464 10463 10462 10463 10463 10463 10463 10460 10458 10456 10454 10452 10451 10449 10449 10450 10450 10452 10453 10454 10453 10450 10449 10450 10450 10448 10447 10446 10445 10445 10445 10446
10457 10458 10458 10457 10457 10457 10456 10456 10455 10455 10455 10456 10457 10456 10455 10454 10454 10454 10453 10454 10455 10455 10455 10454 10453 10452 10453 10453 10454 10455 10455 10454 10453 10452 10452 10452 10452 10451 10448 10446 10445 10444 10442 10440 10439 10440 10441 10441 10443 10444 10445 10445 10443 10441 10441 10441 10439 10437 10436 10436 10436 10436 10437
10444 10444 10444 10444 10444 10443 10442 10442 10442 10441 10441 10442 10443 10443 10443 10442 10442 10442 10442 10443 10445 10447 10447 10446 10444 10443 10443 10443 10443 10443 10444 10443 10443 10442 10442 10441 10440 10438 10436 10434 10433 10431 10429 10429 10431 10433 10433 10433 10434 10435 10435 10435 10434 10433 10432 10432 10430 10429 10428 10428 10428 10428 10428
10431 10431 10430 10430 10430 10430 10429 10428 10428 10428 10427 10427 10428 10428 10428 10427 10427 10429 10429 10430 10433 10437 10439 10437 10436 10434 10434 10433 10431 10431 10431 10431 10431 10432 10431 10429 10426 10425 10425 10424 10419 10415 10415 10419 10422 10424 10424 10425 10426 10426 10426 10425 10424 10423 10423 10422 10421 10420 10420 10419 10420 10420 10419
10418 10418 10418 10418 10417 10417 10417 10416 10416 10416 10415 10415 10415 10414 10414 10412 10412 10413 10415 10416 10419 10424 10427 10426 10425 10424 10423 10421 10420 10421 10420 10419 10420 10421 10420 10417 10414 10412 10412 10409 10403 10401 10404 10408 10410 10411 10413 10414 10415 10416 10416 10415 10415 10414 10413 10412 10412 10411 10411 10411 10411 10410 10409